Location: Ikejouine
(32.5142°N, 5.4699°W)
Time: 19:38:28
(UTC+00:00)

SPOT 3 Rocket - Pass Details

Date: 09 April 2020
Orbit: 779 x 795 km, 98.8° (Epoch: 27 May)

Event Time Altitude Azimuth Distance (km) Brightness Sun altitude
Exits shadow 21:03:23 43° 213° (SSW) 1,105 4.2 -27.5°
Maximum altitude 21:04:41 54° 259° (W) 960 4.1 -27.8°
Drops below altitude 10° 21:09:46 10° 337° (NNW) 2,359 6.7 -28.7°
Sets 21:12:09 0° 342° (NNW) 3,289 7.5 -29.1°
